Regional Weather Roundup
Issued by NWS

Home | Current Version | Previous Version | Graphics & Text | Print | Product List | Glossary On
Versions: 1 2 3 4 5 6 7 8 9 10 11 12 13 14 15 16 17 18 19 20 21 22 23 24 25 26 27 28 29 30 31 32 33 34 35 36 37 38 39 40 41 42 43 44 45 46 47 48 49 50
000
ASUS43 KLMK 280210
RWRKY
KENTUCKY REGIONAL WEATHER ROUNDUP
NATIONAL WEATHER SERVICE LOUISVILLE KY
1000 PM EDT WED JUL 27 2016

NOTE "FAIR" INDICATES FEW OR NO CLOUDS BELOW 12,000 FEET
WITH NO SIGNIFICANT WEATHER AND/OR OBSTRUCTIONS TO VISIBILITY.

KYZ001>023-026-027-061>063-070>075-280300-
WESTERN AND SOUTH CENTRAL KENTUCKY

CITY           SKY/WX    TMP DP  RH WIND       PRES   REMARKS
PADUCAH        TSTM      73  69  87 SW7       29.92F
HENDERSON      NOT AVBL
OWENSBORO      RAIN      76  76 100 SW6       29.94F
HOPKINSVILLE   TSTM      75  73  94 N14G29    29.93R FOG
BOWLING GREEN  CLOUDY    79  73  82 NE5       29.94S
GLASGOW        CLOUDY    78  72  79 CALM      29.94F
$$

KYZ024-025-028>034-038-045-046-053-280300-
NORTH CENTRAL KENTUCKY

CITY           SKY/WX    TMP DP  RH WIND       PRES   REMARKS
LOUISVILLE/SDF CLOUDY    81  73  76 NE5       29.94R
LOUISVILLE/LOU CLOUDY    77  73  87 CALM      29.95R
FORT KNOX      CLOUDY    81  75  83 S8        29.94S
$$

KYZ035>037-039>044-047>052-055>060-089>105-280300-
NORTHEAST KENTUCKY

CITY           SKY/WX    TMP DP  RH WIND       PRES   REMARKS
LEXINGTON      MOCLDY    82  73  74 N5        29.97R
COVINGTON      MOCLDY    81  72  74 CALM      29.95R
FRANKFORT      CLOUDY    79  74  84 SW3       29.96R
$$

KYZ054-064>069-076>088-106>120-280300-
SOUTHEAST KENTUCKY

CITY           SKY/WX    TMP DP  RH WIND       PRES   REMARKS
JACKSON        CLOUDY    73  71  93 CALM      30.01R
LONDON         CLOUDY    78  68  71 N8        30.00R THUNDER
SOMERSET       MOCLDY    73  68  83 CALM      29.99R
MIDDLESBORO    CLOUDY    79  74  85 CALM      30.00R
MONTICELLO     TSTM     N/A N/A N/A CALM      30.00R
$$




USA.gov is the U.S. government's official web portal to all federal, state and local government web resources and services.